Weather in Kultuk

Russia / Irkutsk Oblast     51°43′31″N   103°42′33″E
temp.,
°C
wind,
m/s
gust,
m/s
humid.,
%
clouds,
%
prec.,
mm/h
press.,
hPa
HPBL,
m
17 september, fri
fri1723:00+8wnw228479 0.0 101522
02:00+7wnw2287100 0.0 101523
05:00+7wnw118813 0.1 101618
08:00+8nw118331 0.1 101651
11:00+12ese236834 0.0 1015531
14:00+11e3572100 0.0 1014483
17:00+10ese358470 0.1 1015439
20:00+7ese249498 0.1 1016266
18 september, sat
sat1823:00+8ese3591100 0.0 1016338
02:00+6ese239198 0.0 1016150
05:00+7se249036 0.0 1015241
08:00+8se248929 0.0 1014288
11:00+10ese447824 0.0 1013435
14:00+11ese34765 0.0 1012375
17:00+10ese358235 0.0 1012322
20:00+7ese129548 0.0 101383
19 september, sun
sun1923:00+7ese139492 0.0 101382
02:00+7se229481 0.0 101348
05:00+7se239437 0.0 101385
08:00+8sse119481 0.0 1015136
11:00+10ese228650 0.0 1014311
14:00+12ese23732 0.0 1012350
17:00+11ese238015 0.1 1011197
20:00+7ese119413 0.3 101259
20 september, mon
mon2023:00+8se019425 0.0 101113
02:00+7sse11927 0.0 101020
05:00+7sse129410 0.0 100831
08:00+9se239323 0.0 100689
11:00+12ese358217 0.0 1003279
14:00+14e35709 0.0 1001272
17:00+13e247536 0.0 1000150
20:00+11nnw368739 0.0 1003202
21 september, tue
tue2123:00+9wnw2679100 0.1 1009282
02:00+8nw1385100 0.6 1013500
05:00+6sw118763 0.1 101366
08:00+7ne118464 0.1 101477
11:00+9ese236990 0.0 1012756
14:00+9ese2364100 0.0 1010659
17:00+6wsw2287100 3.3 1011172
20:00+5w2495100 10.0 1014397